Location: London
(51.5074°N, 0.1278°W)
Time: 15:14:04
(UTC+01:00)

ISS - Pass Details

Date: 02 April 2018
Orbit: 403 x 408 km, 51.6° (Epoch: 18 October)

Event Time Altitude Azimuth Distance (km) Brightness Sun altitude
Rises 21:24:51 0° 280° (W) 2,379 1.4 -16.7°
Reaches altitude 10° 21:26:57 10° 279° (W) 1,514 0.1 -17.0°
Maximum altitude 21:30:21 77° 194° (SSW) 440 -3.8 -17.4°
Enters shadow 21:31:01 54° 122° (ESE) 523 -3.7 -17.5°
